FW4125 Weather Reports


Display with metric or nautical units.
time (UTC)temp
F
wind
direction
speed
MPH
gust
MPH
rain 1hr
in
rain 24hr
in
rain mn
in
humidity
%
barometer
mb
20240228230024 46 90 2.0 5.0 0.00 0.00 0.00 23
20240228224522 46 77 1.0 5.0 0.00 0.00 0.00 23
20240228223023 46 62 1.0 5.0 0.00 0.00 0.00 22
20240228221526 46 85 1.0 5.0 0.00 0.00 0.00 23
20240228220019 47 52 1.0 4.0 0.00 0.00 0.00 22
20240228214519 47 72 2.0 6.0 0.00 0.00 0.00 23
20240228213013 47 86 1.0 5.0 0.00 0.00 0.00 22
20240228211512 47 47 1.0 5.0 0.00 0.00 0.00 23
20240228210017 47 82 3.0 6.0 0.00 0.00 0.00 22
20240228204513 46 73 1.0 6.0 0.00 0.00 0.00 24
20240228203012 46 60 1.0 5.0 0.00 0.00 0.00 24
20240228201515 46 137 1.0 4.0 0.00 0.00 0.00 25
20240228200100 45 61 1.0 5.0 0.00 0.00 0.00 25
20240228194604 44 27 2.0 5.0 0.00 0.00 0.00 26
20240228193108 44 136 2.0 6.0 0.00 0.00 0.00 27
20240228191619 43 54 2.0 5.0 0.00 0.00 0.00 27
20240228190102 43 52 0.0 5.0 0.00 0.00 0.00 28
20240228184559 42 95 1.0 5.0 0.00 0.00 0.00 28
20240228183058 42 70 1.0 9.0 0.00 0.00 0.00 30
20240228181555 41 83 3.0 7.0 0.00 0.00 0.00 31
20240228180054 41 52 2.0 7.0 0.00 0.00 0.00 32
20240228174603 41 79 1.0 5.0 0.00 0.00 0.00 34
20240228173056 41 90 1.0 5.0 0.00 0.00 0.00 36
20240228171610 40 105 2.0 6.0 0.00 0.00 0.00 37
20240228170059 40 52 1.0 8.0 0.00 0.00 0.00 39
20240228164558 39 90 4.0 9.0 0.00 0.00 0.00 38
20240228163055 39 63 3.0 7.0 0.00 0.00 0.00 39
20240228161555 39 198 2.0 6.0 0.00 0.00 0.00 40
20240228160104 39 142 3.0 7.0 0.00 0.00 0.00 39
20240228154555 39 84 5.0 9.0 0.00 0.00 0.00 40
20240228153054 38 90 3.0 9.0 0.00 0.00 0.00 41
20240228151558 38 68 3.0 15.0 0.00 0.00 0.00 42
20240228150054 38 59 3.0 7.0 0.00 0.00 0.00 42
20240228144552 38 57 4.0 10.0 0.00 0.00 0.00 42
20240228143053 38 80 3.0 6.0 0.00 0.00 0.00 42
20240228141550 39 72 3.0 9.0 0.00 0.00 0.00 41
20240228140049 39 189 3.0 11.0 0.00 0.00 0.00 41
20240228134601 40 270 4.0 9.0 0.00 0.00 0.00 40
20240228133045 41 20 3.0 9.0 0.00 0.00 0.00 39
20240228131543 41 90 3.0 8.0 0.00 0.00 0.00 39
20240228130036 42 62 2.0 7.0 0.00 0.00 0.00 39
20240228124535 42 64 2.0 11.0 0.00 0.00 0.00 38
20240228123037 43 104 3.0 11.0 0.00 0.00 0.00 38
20240228121539 43 147 2.0 6.0 0.00 0.00 0.00 39
20240228120035 43 54 3.0 7.0 0.00 0.00 0.00 39
20240228114538 43 171 1.0 5.0 0.00 0.00 0.00 39
20240228113036 43 127 3.0 8.0 0.00 0.00 0.00 39
20240228111535 43 6 1.0 6.0 0.00 0.00 0.00 39
20240228110033 44 85 3.0 8.0 0.00 0.00 0.00 38
20240228104536 44 108 3.0 8.0 0.00 0.00 0.00 38
20240228103030 45 81 2.0 7.0 0.00 0.00 0.00 39
20240228101530 45 77 4.0 12.0 0.00 0.00 0.00 38
20240228100041 45 60 3.0 8.0 0.00 0.00 0.00 37
20240228094520 45 278 2.0 7.0 0.00 0.00 0.00 37
20240228093018 46 81 3.0 9.0 0.00 0.00 0.00 37
20240228091531 47 60 3.0 10.0 0.00 0.00 0.00 36
20240228090015 47 173 2.0 8.0 0.00 0.00 0.00 35
20240228084512 48 79 3.0 8.0 0.00 0.00 0.00 35
20240228083006 49 73 3.0 7.0 0.00 0.00 0.00 35
20240228081505 50 32 3.0 9.0 0.00 0.00 0.00 34
20240228080111 52 200 3.0 10.0 0.00 0.00 0.00 34
20240228074601 53 56 2.0 7.0 0.00 0.00 0.00 34
20240228073122 55 64 3.0 9.0 0.00 0.00 0.00 34
20240228071608 57 90 3.0 9.0 0.00 0.00 0.00 34
20240228070056 60 75 3.0 9.0 0.00 0.00 0.00 32
20240228064556 65 68 3.0 11.0 0.00 0.00 0.00 30
20240228063053 71 245 4.0 10.0 0.00 0.00 0.00 33
20240228061557 71 283 3.0 12.0 0.00 0.00 0.00 55
20240228060052 72 231 1.0 5.0 0.00 0.00 0.00 61
20240228054549 72 244 1.0 5.0 0.00 0.00 0.00 61
20240228053047 72 245 2.0 6.0 0.00 0.00 0.00 61
20240228051543 72 237 2.0 7.0 0.00 0.00 0.00 61
20240228050042 72 274 3.0 8.0 0.00 0.00 0.00 61
20240228044556 73 232 2.0 4.0 0.00 0.00 0.00 61
20240228043042 73 254 1.0 4.0 0.00 0.00 0.00 60
20240228041544 73 233 1.0 4.0 0.00 0.00 0.00 60
20240228040043 73 258 1.0 3.0 0.00 0.00 0.00 60
20240228034604 73 251 1.0 3.0 0.00 0.00 0.00 61
20240228033041 73 240 2.0 4.0 0.00 0.00 0.00 61
20240228031540 73 256 1.0 6.0 0.00 0.00 0.00 62
20240228030102 73 268 0.0 6.0 0.00 0.00 0.00 62
20240228024549 73 289 2.0 4.0 0.00 0.00 0.00 61
20240228023055 73 224 1.0 6.0 0.00 0.00 0.00 61
20240228021539 73 204 2.0 7.0 0.00 0.00 0.00 61
20240228020036 73 242 1.0 6.0 0.00 0.00 0.00 61
20240228014534 73 257 2.0 6.0 0.00 0.00 0.00 61
20240228013034 73 245 1.0 5.0 0.00 0.00 0.00 60
20240228011535 74 178 2.0 8.0 0.00 0.00 0.00 60
20240228010037 74 277 2.0 5.0 0.00 0.00 0.00 59
20240228004538 74 264 2.0 6.0 0.00 0.00 0.00 59
20240228003040 75 274 2.0 4.0 0.00 0.00 0.00 59
20240228001535 75 260 1.0 5.0 0.00 0.00 0.00 58
20240228000035 75 165 1.0 4.0 0.00 0.00 0.00 57
20240227234544 76 120 1.0 6.0 0.00 0.00 0.00 57
20240227233034 76 277 2.0 7.0 0.00 0.00 0.00 56
20240227231536 76 162 1.0 8.0 0.00 0.00 0.00 56